Theta_e
314 316 313 314 312 313 315 319 322 324 322 319 316 317 315 313 310 303 300 305 307 315 313 302 300 299 299 296 298 299 288 283 285 288 289 294 292 296 297 294 295 297 301 310 320
314 314 312 314 312 312 313 317 321 324 323 319 316 317 315 312 303 299 309 317 316 317 302 297 294 296 291 291 294 292 286 287 292 291 290 293 292 293 292 292 292 296 299 303 317
314 314 313 313 312 311 312 314 319 325 321 318 317 317 314 308 297 297 316 317 316 312 303 299 296 294 289 289 288 290 286 291 292 293 291 290 290 293 290 288 292 292 295 299 302
315 314 313 312 312 311 311 313 317 323 321 318 318 316 313 303 287 301 316 317 313 304 300 296 293 288 285 284 287 283 288 289 290 292 291 288 290 288 289 289 294 294 298 299 299
314 313 312 311 310 309 311 313 317 323 320 317 318 315 303 296 296 309 315 310 304 302 296 294 290 287 283 284 286 282 286 289 291 291 290 291 288 288 288 291 293 294 295 296 298
311 312 311 310 310 310 312 314 316 322 318 318 317 312 298 292 306 309 306 302 302 300 297 295 291 291 287 285 283 286 287 287 289 289 289 287 287 287 288 290 292 293 294 294 295
311 311 311 310 311 311 313 315 320 319 318 318 315 304 297 297 304 304 303 299 300 300 295 297 296 291 288 284 289 287 282 284 285 287 287 289 284 284 288 289 288 290 292 293 295
311 311 311 311 312 314 317 318 319 318 318 316 312 299 291 302 304 301 300 299 301 301 299 298 298 292 288 288 286 282 280 276 283 286 288 287 279 287 290 287 288 289 291 292 294
312 311 310 310 314 318 318 318 319 318 316 312 302 296 290 304 298 297 299 297 298 299 300 302 296 289 288 280 277 279 273 275 280 287 287 285 281 287 290 289 289 290 291 292 292
310 310 314 316 316 317 317 316 315 311 306 303 301 290 294 291 296 297 297 300 296 295 294 292 286 281 280 276 270 271 271 275 277 283 285 282 282 287 289 289 288 289 290 291 291
312 312 315 315 316 315 311 305 297 294 297 291 291 291 294 297 299 297 299 296 294 290 283 287 279 276 277 280 280 278 277 278 281 285 283 282 283 286 289 289 288 289 289 290 290
314 314 314 313 312 311 306 297 297 297 290 296 296 295 297 298 292 295 298 290 288 282 287 282 274 283 285 284 282 280 280 279 282 285 283 283 283 287 289 289 289 289 288 289 289
314 314 314 311 310 306 301 299 302 298 289 292 295 295 295 297 292 292 295 294 289 287 287 280 282 288 287 285 283 281 279 279 278 284 285 282 280 282 287 290 290 291 289 289 288
313 312 311 311 304 301 298 303 302 296 280 286 291 294 296 296 290 299 301 294 289 286 286 282 287 286 284 284 285 280 285 284 283 282 278 286 276 283 286 288 289 290 291 293 293
312 311 310 308 298 298 301 302 300 291 271 287 291 300 297 293 293 294 301 293 285 287 287 281 284 287 285 287 288 284 288 287 286 285 284 283 279 281 288 286 289 292 293 296 298
310 309 308 301 298 299 301 299 292 277 268 280 291 290 290 292 293 295 296 299 297 290 290 288 292 290 288 291 290 291 288 287 288 285 274 280 280 278 284 287 289 295 298 301 301
308 308 303 302 294 300 298 291 278 272 283 282 284 289 289 289 291 292 290 289 286 283 274 284 287 289 291 287 293 290 285 275 272 271 272 284 280 283 288 289 292 297 299 301 303
307 305 302 301 299 297 292 284 272 281 281 287 287 288 284 288 289 291 289 286 289 289 286 276 276 285 291 289 288 288 286 279 269 274 277 285 278 284 291 292 292 294 298 299 298
305 296 296 298 299 295 287 275 276 282 286 286 286 282 282 286 287 289 286 285 286 289 283 280 279 289 292 294 292 288 286 291 283 283 278 279 283 290 292 290 289 291 295 295 295
294 293 293 298 297 291 283 281 282 286 289 288 282 283 279 282 283 283 283 288 288 290 288 285 282 287 291 294 293 289 293 282 279 276 273 277 278 282 286 286 289 288 291 293 293
292 289 295 297 294 288 278 280 286 290 291 287 284 282 283 282 283 282 283 287 290 289 289 285 284 283 287 285 283 284 282 284 283 282 276 273 276 290 287 290 291 291 291 291 290
289 282 295 295 285 282 282 285 293 290 291 290 288 287 284 284 282 282 282 286 291 290 284 287 282 278 281 286 287 285 283 282 275 277 278 278 281 293 293 293 294 290 289 288 288
287 286 294 293 280 281 285 287 289 289 289 289 287 289 288 284 282 284 285 291 292 290 285 286 280 273 276 280 284 282 284 283 283 280 276 274 279 290 290 292 290 285 284 286 287
287 282 287 288 285 283 282 284 285 290 290 290 288 288 286 284 285 284 285 289 291 290 297 291 281 279 273 279 282 281 283 282 280 273 278 277 278 283 286 287 287 284 283 284 284
287 283 284 279 284 283 283 284 284 284 289 289 286 287 284 281 282 282 285 287 289 292 288 287 280 278 281 282 283 283 282 282 277 279 276 278 280 284 286 287 286 286 285 284 284
287 286 284 283 284 281 284 283 284 286 287 286 285 288 286 282 283 281 283 282 282 287 284 285 280 280 279 281 281 280 282 282 283 282 281 281 281 286 287 287 288 287 286 284 283
290 289 288 284 282 281 282 284 287 288 289 289 288 286 285 287 289 289 288 288 286 283 284 283 281 278 274 278 278 275 279 281 283 283 283 280 284 285 285 287 288 287 286 285 284
Wind_Speed
4 8 6 4 4 3 4 8 7 14 14 10 5 6 5 5 4 4 7 2 1 7 5 1 6 4 5 4 3 2 4 2 3 5 3 4 6 5 3 3 4 3 2 3 8
6 6 5 6 2 1 2 6 9 12 16 12 7 7 6 5 4 9 5 8 7 8 5 5 4 5 5 3 4 4 3 7 3 1 2 6 1 3 4 4 3 5 5 3 4
8 8 6 3 2 1 0 3 11 14 17 14 10 9 6 3 6 4 8 8 8 6 4 2 3 4 5 4 5 2 3 2 2 3 5 4 6 3 3 4 7 5 8 7 2
12 9 7 6 3 2 2 4 7 13 17 12 12 9 6 3 5 4 5 11 11 6 5 6 6 4 4 4 4 2 2 3 4 5 4 6 6 6 7 6 4 7 6 7 11
8 6 5 4 4 3 4 4 6 13 18 14 13 9 3 8 4 6 13 8 8 7 7 4 6 3 4 3 4 2 4 6 6 8 6 6 9 10 7 8 11 11 10 10 12
5 4 2 1 0 1 5 3 7 20 18 15 12 4 5 8 4 4 8 7 7 6 7 7 4 3 5 3 2 2 4 7 7 7 6 8 13 3 4 8 10 10 9 10 11
3 2 4 2 4 5 7 7 15 20 17 16 10 1 14 6 3 5 7 3 4 4 6 4 3 7 1 1 3 3 5 6 2 2 5 3 9 8 7 8 11 12 10 10 13
5 5 5 5 9 12 11 13 24 21 17 12 4 4 6 4 1 7 3 4 7 5 4 4 6 5 3 1 6 5 3 5 4 6 5 3 11 6 7 5 11 11 10 10 12
10 7 4 4 6 25 27 24 22 21 15 4 5 6 5 3 4 2 3 3 2 4 7 5 6 4 5 4 5 6 3 3 8 3 3 3 14 7 9 10 21 21 19 14 11
6 6 8 7 21 24 24 19 19 12 5 2 4 8 3 2 2 2 2 4 5 4 5 7 6 4 4 5 2 3 4 4 7 5 3 11 24 26 19 13 20 19 17 14 12
7 10 27 25 27 25 15 4 6 9 10 5 2 5 4 1 3 5 1 3 3 6 3 3 6 2 4 4 2 1 4 10 13 12 6 14 20 23 22 12 15 17 16 16 13
23 20 24 20 14 7 2 5 4 5 9 7 7 6 2 1 3 3 1 3 4 2 2 4 1 6 5 4 5 4 10 12 13 5 5 13 21 22 18 13 8 13 11 13 9
22 17 19 13 7 9 7 5 5 3 7 4 2 3 1 3 2 2 1 1 2 3 2 3 6 3 4 6 8 8 9 9 9 6 11 11 10 3 3 5 5 6 7 8 10
18 17 11 2 5 2 5 7 5 1 8 8 5 3 2 2 4 2 3 1 1 3 4 5 2 1 4 9 8 8 7 14 14 8 6 4 9 1 6 6 6 10 10 11 11
13 11 13 11 3 4 4 7 6 4 8 5 3 2 2 2 3 1 1 3 2 3 1 7 4 4 6 7 9 9 6 6 10 9 6 3 4 5 8 8 17 16 12 11 10
17 14 6 5 4 2 6 5 4 9 1 4 2 2 1 1 1 1 2 1 0 4 7 11 1 4 6 3 12 9 10 11 5 2 2 3 4 3 9 12 16 10 6 11 4
11 15 8 3 1 6 4 4 7 8 3 2 1 1 2 2 1 3 2 2 2 4 5 5 4 3 4 4 4 5 4 4 5 4 5 4 3 3 13 14 15 11 8 10 11
3 8 4 3 3 4 3 7 11 2 3 0 2 0 2 1 3 2 3 3 4 2 4 3 8 4 5 5 2 2 1 2 4 3 4 2 5 3 9 13 16 16 14 14 17
5 3 2 4 4 3 6 7 7 5 3 4 2 1 2 2 3 2 3 2 3 6 1 3 7 4 5 4 3 1 2 1 3 4 2 3 3 2 13 13 15 17 15 15 18
3 2 3 5 3 5 7 3 1 3 2 1 2 3 1 2 2 0 1 3 1 4 3 3 7 4 3 3 3 3 3 2 2 4 4 4 3 7 13 14 11 12 15 14 13
4 4 3 5 2 6 5 1 2 3 3 3 3 2 3 2 3 3 4 3 2 1 5 1 2 8 3 1 1 3 3 3 1 2 1 4 4 8 9 9 11 11 8 8 7
2 4 2 2 6 2 2 0 3 2 1 2 2 4 3 2 2 3 3 5 4 2 2 4 3 5 4 5 2 2 2 1 3 3 1 3 3 4 3 6 8 6 5 4 5
3 2 3 3 5 3 4 1 2 2 2 3 3 3 2 1 2 3 3 3 4 3 3 3 1 5 8 7 5 3 3 1 2 1 3 3 4 0 3 3 4 3 3 4 5
3 4 6 6 1 5 2 2 3 3 0 2 3 2 3 2 2 3 3 2 4 2 3 4 3 6 7 7 2 7 6 2 3 2 2 5 3 4 3 3 4 2 2 4 5
3 0 3 3 5 3 1 1 2 4 3 5 1 3 1 3 3 2 2 6 3 5 2 1 4 3 7 8 4 6 7 4 3 5 3 3 6 6 7 7 7 6 3 2 3
3 3 2 1 2 1 3 1 0 2 1 2 1 4 1 3 4 3 2 1 2 6 4 3 4 3 6 1 3 7 8 7 5 3 4 2 5 7 5 4 5 7 5 3 2
1 2 4 1 2 1 3 2 2 1 2 2 2 2 3 5 4 6 5 4 4 2 3 3 3 5 6 5 7 6 6 8 4 4 6 6 9 5 5 8 8 7 7 5 4
Wind_Direction
219 284 285 295 274 335 343 312 318 178 174 156 158 137 108 50 8 30 49 279 42 357 8 355 48 29 39 60 39 128 81 166 218 162 245 21 19 314 311 253 343 282 213 304 314
191 204 256 246 211 297 16 331 309 207 160 149 152 149 120 74 78 49 311 39 27 20 42 43 31 55 55 33 16 83 126 197 204 109 336 310 276 298 315 297 278 305 291 308 329
184 185 238 262 193 242 353 324 317 175 148 153 153 146 114 71 74 342 342 46 38 21 59 69 48 53 67 44 9 19 170 208 10 5 8 308 303 257 240 273 228 230 287 312 332
182 190 210 205 149 234 262 277 279 171 147 150 146 138 109 41 89 286 30 44 35 50 48 29 34 47 66 57 351 44 336 33 337 345 335 303 304 281 229 231 277 297 281 298 297
189 181 211 222 169 269 270 256 279 163 139 140 138 138 81 54 52 321 52 14 31 45 44 54 51 70 78 40 349 41 349 335 313 293 263 262 250 253 240 261 262 258 261 260 279
82 107 124 139 309 232 255 265 266 150 133 134 133 145 74 78 306 57 57 39 45 56 37 43 75 77 86 70 56 294 270 273 268 258 256 260 269 216 275 254 271 263 249 261 267
162 37 61 13 327 258 251 226 129 125 126 126 133 37 63 75 17 57 56 28 31 62 62 22 66 71 93 61 324 321 338 317 331 350 297 322 282 235 264 256 258 262 249 242 245
74 69 64 359 327 267 205 149 134 119 113 113 85 62 73 334 139 53 61 43 38 30 74 40 66 89 51 4 11 10 45 359 318 335 288 118 262 281 286 284 279 273 265 251 241
69 61 14 354 74 98 110 112 104 100 101 96 51 86 79 336 58 24 34 88 58 28 26 47 52 67 25 56 15 12 320 314 313 310 281 187 282 248 259 285 274 270 271 269 250
74 45 356 151 121 104 97 100 97 89 58 70 78 67 337 144 139 82 17 67 60 30 18 37 47 57 37 58 244 274 331 287 247 279 308 275 273 275 280 255 261 267 265 257 230
129 79 80 103 103 98 99 62 43 29 34 65 79 78 91 168 34 33 35 71 40 49 24 24 49 280 222 206 203 259 240 269 262 267 277 266 266 278 287 276 271 263 251 253 245
116 104 90 78 42 35 84 66 41 158 69 32 53 60 101 137 87 6 49 75 54 7 316 7 245 235 209 208 220 219 274 273 287 267 200 272 277 283 281 276 272 282 254 252 261
92 99 96 82 54 43 70 49 338 5 95 31 56 76 319 48 82 217 57 107 80 314 239 201 235 155 180 271 266 242 235 253 238 307 255 276 277 281 302 301 322 346 292 271 246
77 49 28 305 35 7 46 331 324 258 81 346 359 358 339 101 42 356 34 94 351 315 342 241 227 198 236 259 215 282 222 243 264 289 308 50 295 317 334 297 335 320 307 289 280
45 44 44 50 119 49 318 307 293 59 71 300 331 262 340 75 163 260 253 45 250 292 124 256 199 233 271 256 167 241 239 246 272 260 301 163 261 282 348 325 326 320 300 290 269
32 14 31 27 54 183 286 298 42 44 1 324 309 345 347 208 204 63 340 126 200 272 242 256 74 229 229 258 210 253 291 280 269 278 293 237 224 304 352 320 312 305 333 342 18
29 37 44 16 11 324 309 40 42 80 273 279 187 339 291 251 205 183 240 244 210 331 332 315 206 223 183 263 211 223 298 332 353 5 237 211 187 280 342 337 336 3 354 24 46
64 43 6 90 302 321 44 48 66 244 203 9 127 195 296 181 253 227 291 294 206 203 305 1 332 193 173 209 243 199 207 248 270 310 290 15 319 343 8 349 353 10 23 37 34
85 4 12 322 355 63 66 51 172 201 185 158 119 147 291 291 204 291 207 248 232 170 185 342 282 275 194 170 182 180 259 174 277 241 349 290 303 238 351 6 9 17 30 36 36
73 48 283 330 351 67 71 124 175 220 192 163 139 168 45 273 226 173 272 214 246 171 190 289 296 265 298 152 235 218 283 335 332 339 323 327 339 341 349 346 357 20 23 36 39
54 51 265 351 56 53 95 221 261 247 209 150 156 164 233 222 223 232 258 289 141 83 170 235 165 289 338 9 312 345 358 290 318 163 330 318 317 346 344 351 13 34 42 27 38
78 36 315 39 51 20 75 108 342 330 8 285 218 207 191 214 264 249 252 216 184 168 229 193 169 282 272 321 316 212 356 53 107 344 77 144 294 211 265 313 349 20 33 30 34
66 279 331 75 91 13 314 320 189 7 7 356 342 11 4 263 278 221 261 253 184 178 214 177 235 329 341 345 352 49 314 267 251 77 234 138 253 27 266 319 40 113 55 11 14
74 13 335 43 49 106 48 342 341 332 151 19 349 20 347 279 224 287 291 307 335 225 247 144 190 176 191 219 197 303 316 27 114 75 184 226 243 221 200 232 242 239 20 23 14
42 78 171 341 360 34 138 300 345 3 33 22 56 73 308 306 312 272 308 322 335 8 50 68 263 191 253 244 221 238 258 306 180 221 184 307 212 238 213 212 220 218 210 256 349
109 124 71 105 282 23 335 177 303 314 223 302 110 311 237 244 221 274 5 312 301 327 27 1 286 343 283 68 285 266 238 238 238 220 240 180 265 215 208 191 210 220 208 233 350
98 35 100 290 359 23 219 182 200 344 254 240 234 286 266 236 215 226 221 238 227 316 313 23 0 9 277 335 303 301 238 190 199 204 167 193 228 170 187 205 216 218 214 218 225